Regional Weather Roundup
Issued by NWS Albany, NY

Home | Current Version | Previous Version | Text Only | Print | Product List | Glossary On
Versions: 1 2 3 4 5 6 7 8 9 10 11 12 13 14 15 16 17 18 19 20 21 22 23 24 25 26 27 28 29 30 31 32 33 34 35 36 37 38 39 40 41 42 43 44 45 46 47 48 49 50
000
ASUS41 KALY 272210
RWRALY

NEW YORK STATE HOURLY WEATHER ROUNDUP
NATIONAL WEATHER SERVICE ALBANY NY
600 PM EDT MON MAR 27 2017

NOTE: "FAIR" INDICATES FEW OR NO CLOUDS BELOW 12,000 FEET WITH NO
SIGNIFICANT WEATHER AND/OR NO OBSTRUCTIONS TO VISIBILITY.

NYZ032-033-038>043-046>054-057>066-NYZ062>081-082-084-272300-
EAST


CITY           SKY/WX    TMP DP  RH WIND       PRES   REMARKS
ALBANY         CLOUDY    46  39  76 S6        29.98S
GLENS FALLS    CLOUDY    38  36  92 CALM      29.98S FOG
POUGHKEEPSIE   SUNNY     47  41  80 W6        29.97S
NEWBURGH       MOSUNNY   46  45  93 CALM      29.98F
MONTGOMERY     SUNNY     48  42  80 SW5       29.96F
WHITE PLAINS   CLOUDY    48  44  86 CALM      29.98S
ISLIP          CLOUDY    51  46  83 CALM      29.99S
NEW YORK CITY  CLOUDY    48  43  82 NE8       29.98F
CENTRAL PARK   CLOUDY    51  44  77 NE6       30.01F
$$

NYZ005>009-017-018-044>046-055-056-272300-
CENTRAL


CITY           SKY/WX    TMP DP  RH WIND       PRES   REMARKS
FULTON         CLOUDY    47  41  80 VRB5      29.91S
SYRACUSE       CLOUDY    48  42  80 E7        29.91S
ROME           CLOUDY    41  39  93 E7        29.96S
ELMIRA         MOSUNNY   60  50  69 W5        29.90F
BINGHAMTON     PTSUNNY   55  46  71 CALM      29.91F
MONTICELLO     CLOUDY    46  45  93 CALM      29.97S
$$

NYZ026>034-041>043-087-272300-
NORTH


CITY           SKY/WX    TMP DP  RH WIND       PRES   REMARKS
WATERTOWN      CLOUDY    49  47  93 S6        29.89R
FORT DRUM      NOT AVBL
MASSENA        FOG       38  38 100 CALM      29.92R VSB 3/4
SARANAC LAKE   CLOUDY    40  40 100 SW6       29.88S FOG
PLATTSBURGH    CLOUDY    39  35  86 SE9       29.93S WCI  33
$$

NYZ001>004-010>016-019>021-085-272300-
WEST


CITY           SKY/WX    TMP DP  RH WIND       PRES   REMARKS
NIAGARA FALLS  CLOUDY    56  48  74 S14       29.88S
BUFFALO        CLOUDY    49  47  93 SW13      29.91S FOG
DUNKIRK        CLOUDY    54  48  80 W10       29.92F
JAMESTOWN      CLOUDY    55  46  71 NW8       29.91S
WELLSVILLE     MOSUNNY   58  49  72 W7        29.92F
ROCHESTER      CLOUDY    57  50  77 W14       29.90S
PENN YAN       CLOUDY    60  48  64 W5        29.91S
$$

             KEY
       WCI = WIND CHILL INDEX
       VSB = VISIBILITY
       HX  = HEAT INDEX
$$



USA.gov is the U.S. government's official web portal to all federal, state and local government web resources and services.